GEFSNGP_prec_meanprecacc_192.txt.gz
Total_Precipitation_Accumulation
0.52 0.40 0.45 0.46 0.35 0.44 0.73 0.73 0.75 0.46 0.34 0.33 0.31 0.28 0.24 0.26 0.27 0.27 0.28 0.30 0.34 0.37 0.40 0.43 0.41 0.41 0.44 0.50 0.57 0.59 0.60 0.67 0.71 0.72 0.76 0.86 0.90 0.86 0.86 0.88 0.94 0.98 0.99 1.04
0.53 0.33 0.33 0.36 0.29 0.33 0.42 0.45 0.51 0.40 0.36 0.26 0.25 0.23 0.22 0.24 0.23 0.21 0.22 0.24 0.25 0.30 0.36 0.39 0.37 0.37 0.37 0.40 0.45 0.47 0.48 0.53 0.60 0.67 0.76 0.86 0.93 0.91 0.87 0.85 0.90 0.97 0.96 1.02
0.49 0.25 0.35 0.39 0.30 0.35 0.38 0.37 0.43 0.46 0.38 0.24 0.23 0.21 0.22 0.23 0.20 0.17 0.18 0.18 0.19 0.22 0.28 0.29 0.29 0.31 0.34 0.36 0.39 0.42 0.41 0.43 0.49 0.62 0.72 0.78 0.84 0.88 0.89 0.90 0.99 1.09 1.09 1.10
0.55 0.37 0.42 0.26 0.19 0.24 0.29 0.32 0.34 0.33 0.25 0.19 0.20 0.21 0.21 0.20 0.18 0.16 0.15 0.14 0.15 0.18 0.21 0.21 0.22 0.24 0.26 0.27 0.33 0.42 0.45 0.47 0.51 0.57 0.67 0.78 0.82 0.88 0.93 0.96 1.04 1.13 1.18 1.20
0.64 0.46 0.25 0.13 0.11 0.16 0.26 0.31 0.21 0.19 0.16 0.12 0.13 0.14 0.15 0.17 0.15 0.15 0.15 0.14 0.14 0.16 0.17 0.16 0.18 0.21 0.21 0.22 0.28 0.36 0.43 0.47 0.48 0.52 0.62 0.74 0.84 0.91 0.96 1.00 1.05 1.11 1.10 1.07
0.68 0.54 0.28 0.14 0.06 0.08 0.21 0.39 0.17 0.12 0.12 0.11 0.13 0.19 0.17 0.15 0.15 0.13 0.13 0.17 0.17 0.16 0.16 0.16 0.18 0.20 0.23 0.25 0.29 0.37 0.40 0.45 0.47 0.50 0.58 0.68 0.78 0.87 0.92 0.94 0.94 0.94 0.93 0.88
0.54 0.51 0.21 0.09 0.05 0.08 0.33 0.47 0.19 0.13 0.12 0.13 0.15 0.17 0.14 0.11 0.10 0.11 0.13 0.17 0.22 0.24 0.25 0.26 0.28 0.29 0.30 0.31 0.34 0.38 0.41 0.46 0.49 0.51 0.57 0.65 0.70 0.73 0.76 0.74 0.72 0.71 0.70 0.68
0.30 0.44 0.25 0.11 0.12 0.21 0.29 0.20 0.15 0.14 0.14 0.17 0.19 0.16 0.14 0.12 0.10 0.11 0.14 0.17 0.22 0.27 0.29 0.32 0.33 0.35 0.36 0.38 0.40 0.40 0.42 0.47 0.51 0.53 0.52 0.53 0.55 0.58 0.57 0.56 0.56 0.55 0.56 0.56
0.20 0.22 0.16 0.14 0.18 0.21 0.21 0.17 0.13 0.13 0.13 0.15 0.21 0.21 0.19 0.16 0.13 0.11 0.13 0.16 0.19 0.23 0.24 0.25 0.30 0.36 0.40 0.41 0.40 0.39 0.41 0.43 0.43 0.44 0.43 0.44 0.44 0.45 0.47 0.49 0.50 0.52 0.52 0.53
0.17 0.14 0.12 0.13 0.15 0.14 0.14 0.13 0.12 0.12 0.13 0.15 0.16 0.20 0.19 0.18 0.17 0.16 0.15 0.13 0.14 0.16 0.18 0.19 0.21 0.25 0.30 0.32 0.32 0.30 0.32 0.32 0.32 0.32 0.34 0.35 0.36 0.38 0.41 0.43 0.44 0.45 0.47 0.47
0.16 0.11 0.09 0.09 0.09 0.08 0.08 0.08 0.09 0.10 0.11 0.13 0.13 0.16 0.18 0.18 0.16 0.16 0.15 0.14 0.12 0.12 0.12 0.13 0.14 0.16 0.20 0.22 0.23 0.23 0.24 0.23 0.23 0.24 0.30 0.34 0.34 0.36 0.39 0.41 0.46 0.47 0.45 0.44
0.20 0.12 0.12 0.11 0.07 0.06 0.06 0.06 0.07 0.09 0.11 0.11 0.12 0.15 0.15 0.15 0.13 0.13 0.15 0.15 0.12 0.11 0.12 0.12 0.13 0.13 0.14 0.18 0.21 0.23 0.22 0.22 0.22 0.21 0.25 0.32 0.36 0.37 0.41 0.44 0.49 0.53 0.52 0.48
0.14 0.11 0.09 0.08 0.06 0.05 0.05 0.05 0.05 0.07 0.08 0.08 0.08 0.10 0.12 0.12 0.13 0.13 0.13 0.13 0.11 0.11 0.12 0.12 0.13 0.14 0.14 0.16 0.19 0.21 0.22 0.24 0.24 0.24 0.27 0.31 0.33 0.34 0.35 0.37 0.41 0.47 0.50 0.50
0.08 0.08 0.07 0.06 0.06 0.06 0.05 0.05 0.04 0.05 0.05 0.06 0.07 0.08 0.09 0.10 0.12 0.14 0.15 0.15 0.14 0.12 0.11 0.12 0.12 0.12 0.12 0.13 0.16 0.19 0.22 0.25 0.24 0.25 0.29 0.31 0.34 0.35 0.33 0.31 0.32 0.34 0.39 0.45
0.06 0.06 0.07 0.05 0.05 0.05 0.05 0.04 0.04 0.04 0.04 0.05 0.07 0.08 0.09 0.11 0.14 0.16 0.16 0.15 0.15 0.14 0.12 0.11 0.11 0.12 0.12 0.13 0.14 0.17 0.20 0.22 0.22 0.24 0.27 0.29 0.31 0.35 0.34 0.31 0.30 0.28 0.29 0.35
0.06 0.05 0.06 0.05 0.04 0.04 0.05 0.05 0.05 0.06 0.06 0.07 0.09 0.10 0.11 0.13 0.15 0.17 0.16 0.16 0.15 0.14 0.13 0.11 0.11 0.11 0.12 0.14 0.15 0.16 0.18 0.22 0.22 0.22 0.24 0.27 0.29 0.31 0.33 0.30 0.29 0.27 0.27 0.28
0.09 0.08 0.08 0.07 0.07 0.06 0.06 0.06 0.07 0.07 0.08 0.08 0.10 0.12 0.13 0.14 0.16 0.17 0.17 0.16 0.16 0.16 0.15 0.13 0.13 0.12 0.12 0.14 0.16 0.17 0.18 0.20 0.23 0.22 0.23 0.25 0.27 0.29 0.32 0.33 0.32 0.29 0.27 0.32
0.10 0.12 0.12 0.12 0.11 0.09 0.08 0.08 0.09 0.08 0.09 0.09 0.09 0.10 0.12 0.14 0.16 0.17 0.17 0.16 0.17 0.17 0.16 0.16 0.16 0.15 0.14 0.14 0.17 0.18 0.20 0.19 0.20 0.20 0.21 0.25 0.28 0.29 0.29 0.30 0.31 0.30 0.28 0.32
0.10 0.13 0.14 0.13 0.12 0.12 0.11 0.11 0.11 0.11 0.11 0.11 0.12 0.13 0.14 0.15 0.15 0.17 0.19 0.18 0.18 0.18 0.19 0.18 0.20 0.17 0.14 0.16 0.20 0.20 0.20 0.21 0.21 0.21 0.22 0.26 0.28 0.26 0.26 0.27 0.29 0.30 0.29 0.29
0.13 0.14 0.16 0.16 0.15 0.14 0.14 0.13 0.12 0.12 0.12 0.12 0.13 0.14 0.16 0.17 0.17 0.18 0.18 0.18 0.19 0.20 0.21 0.21 0.20 0.16 0.16 0.18 0.23 0.20 0.20 0.22 0.24 0.24 0.26 0.26 0.26 0.26 0.26 0.28 0.28 0.29 0.28 0.29
0.15 0.16 0.16 0.17 0.18 0.17 0.17 0.16 0.15 0.14 0.13 0.13 0.14 0.15 0.16 0.17 0.17 0.17 0.17 0.18 0.17 0.17 0.17 0.20 0.19 0.17 0.19 0.23 0.27 0.23 0.22 0.24 0.25 0.26 0.27 0.27 0.28 0.29 0.29 0.29 0.30 0.30 0.30 0.30
0.16 0.16 0.17 0.17 0.17 0.17 0.17 0.15 0.15 0.16 0.15 0.15 0.15 0.15 0.15 0.16 0.16 0.16 0.16 0.16 0.16 0.18 0.17 0.16 0.16 0.20 0.26 0.29 0.26 0.24 0.24 0.26 0.28 0.29 0.29 0.28 0.29 0.30 0.31 0.31 0.32 0.32 0.32 0.32
0.15 0.14 0.14 0.15 0.15 0.16 0.16 0.16 0.16 0.16 0.17 0.17 0.17 0.17 0.17 0.17 0.17 0.17 0.17 0.16 0.16 0.17 0.16 0.16 0.20 0.25 0.29 0.27 0.24 0.23 0.25 0.27 0.28 0.28 0.28 0.29 0.29 0.31 0.32 0.33 0.32 0.31 0.32 0.31
0.13 0.12 0.13 0.13 0.14 0.14 0.15 0.16 0.16 0.16 0.16 0.16 0.16 0.16 0.17 0.18 0.18 0.17 0.17 0.17 0.18 0.18 0.17 0.18 0.22 0.24 0.25 0.22 0.21 0.22 0.24 0.25 0.27 0.28 0.28 0.30 0.30 0.31 0.31 0.30 0.29 0.27 0.27 0.28
0.11 0.11 0.11 0.12 0.12 0.12 0.13 0.15 0.15 0.15 0.15 0.15 0.15 0.15 0.15 0.17 0.17 0.17 0.15 0.15 0.16 0.17 0.16 0.16 0.19 0.20 0.20 0.19 0.19 0.21 0.22 0.23 0.26 0.28 0.28 0.28 0.28 0.29 0.29 0.28 0.27 0.26 0.24 0.23
0.08 0.08 0.08 0.10 0.11 0.12 0.13 0.15 0.17 0.16 0.15 0.16 0.15 0.14 0.13 0.13 0.13 0.14 0.15 0.16 0.16 0.17 0.16 0.15 0.16 0.18 0.19 0.18 0.19 0.20 0.21 0.21 0.23 0.23 0.22 0.24 0.25 0.27 0.26 0.25 0.24 0.24 0.23 0.22
0.05 0.06 0.06 0.07 0.09 0.10 0.11 0.13 0.16 0.17 0.17 0.16 0.16 0.14 0.13 0.13 0.14 0.15 0.16 0.16 0.16 0.16 0.15 0.15 0.17 0.18 0.19 0.19 0.20 0.20 0.20 0.20 0.20 0.20 0.21 0.23 0.24 0.25 0.24 0.24 0.24 0.23 0.23 0.22

GEFSNGP_prec_meanprecacc_198.txt.gz
Total_Precipitation_Accumulation
0.52 0.41 0.45 0.46 0.35 0.44 0.73 0.73 0.75 0.46 0.34 0.33 0.31 0.28 0.25 0.27 0.27 0.27 0.28 0.30 0.34 0.37 0.40 0.43 0.41 0.41 0.44 0.50 0.57 0.59 0.60 0.67 0.71 0.72 0.76 0.86 0.90 0.86 0.86 0.88 0.94 0.98 0.99 1.04
0.54 0.33 0.33 0.36 0.29 0.33 0.42 0.45 0.51 0.40 0.36 0.26 0.25 0.23 0.23 0.24 0.23 0.21 0.22 0.24 0.25 0.30 0.36 0.39 0.37 0.37 0.37 0.40 0.45 0.47 0.48 0.53 0.60 0.67 0.76 0.86 0.93 0.91 0.87 0.85 0.90 0.97 0.96 1.02
0.50 0.25 0.35 0.40 0.30 0.35 0.38 0.37 0.43 0.46 0.38 0.24 0.23 0.21 0.22 0.23 0.20 0.17 0.18 0.18 0.19 0.22 0.28 0.29 0.29 0.31 0.34 0.36 0.39 0.42 0.41 0.43 0.49 0.62 0.72 0.78 0.84 0.88 0.89 0.90 0.99 1.09 1.09 1.10
0.57 0.38 0.44 0.26 0.19 0.24 0.29 0.32 0.34 0.33 0.25 0.19 0.20 0.21 0.21 0.21 0.18 0.16 0.15 0.14 0.15 0.18 0.21 0.21 0.22 0.24 0.26 0.27 0.33 0.42 0.45 0.47 0.51 0.57 0.67 0.78 0.82 0.88 0.93 0.96 1.04 1.13 1.18 1.20
0.68 0.49 0.26 0.14 0.11 0.16 0.26 0.31 0.21 0.19 0.16 0.12 0.13 0.14 0.15 0.17 0.16 0.15 0.15 0.14 0.14 0.16 0.17 0.16 0.18 0.21 0.21 0.22 0.28 0.37 0.43 0.48 0.48 0.53 0.63 0.74 0.84 0.91 0.96 1.00 1.05 1.11 1.10 1.07
0.74 0.59 0.30 0.15 0.07 0.08 0.22 0.40 0.17 0.12 0.12 0.11 0.13 0.19 0.17 0.15 0.15 0.13 0.13 0.17 0.17 0.16 0.16 0.16 0.18 0.20 0.23 0.25 0.29 0.37 0.41 0.45 0.47 0.50 0.58 0.68 0.78 0.87 0.93 0.94 0.94 0.94 0.93 0.88
0.59 0.55 0.23 0.10 0.05 0.08 0.33 0.48 0.19 0.13 0.12 0.13 0.16 0.17 0.14 0.11 0.10 0.11 0.13 0.17 0.22 0.24 0.25 0.26 0.28 0.29 0.30 0.31 0.35 0.38 0.42 0.47 0.49 0.52 0.57 0.65 0.71 0.74 0.76 0.75 0.73 0.71 0.70 0.68
0.34 0.49 0.28 0.12 0.13 0.22 0.30 0.20 0.15 0.14 0.15 0.18 0.20 0.17 0.14 0.12 0.10 0.11 0.14 0.18 0.23 0.27 0.29 0.32 0.33 0.35 0.36 0.39 0.40 0.40 0.43 0.47 0.52 0.54 0.53 0.54 0.56 0.60 0.58 0.57 0.56 0.55 0.56 0.57
0.25 0.26 0.18 0.15 0.19 0.22 0.22 0.18 0.14 0.13 0.13 0.16 0.22 0.22 0.19 0.17 0.14 0.12 0.13 0.16 0.19 0.23 0.24 0.25 0.30 0.36 0.40 0.41 0.40 0.39 0.42 0.43 0.44 0.45 0.45 0.46 0.45 0.46 0.48 0.50 0.50 0.52 0.52 0.53
0.22 0.19 0.16 0.15 0.16 0.15 0.15 0.14 0.13 0.13 0.14 0.15 0.17 0.20 0.20 0.19 0.17 0.16 0.15 0.13 0.14 0.16 0.18 0.19 0.21 0.25 0.30 0.32 0.32 0.30 0.33 0.32 0.32 0.33 0.35 0.36 0.37 0.39 0.42 0.44 0.44 0.45 0.47 0.47
0.20 0.15 0.12 0.11 0.10 0.09 0.09 0.09 0.09 0.11 0.12 0.13 0.13 0.16 0.19 0.18 0.16 0.16 0.15 0.14 0.12 0.12 0.12 0.13 0.14 0.16 0.20 0.22 0.23 0.23 0.24 0.24 0.24 0.25 0.31 0.35 0.36 0.37 0.40 0.42 0.47 0.48 0.45 0.44
0.23 0.14 0.14 0.12 0.08 0.07 0.07 0.07 0.07 0.10 0.12 0.11 0.12 0.15 0.16 0.15 0.13 0.13 0.15 0.15 0.12 0.11 0.12 0.12 0.13 0.13 0.14 0.18 0.21 0.23 0.22 0.22 0.23 0.21 0.26 0.33 0.37 0.38 0.42 0.45 0.50 0.54 0.53 0.49
0.15 0.12 0.10 0.09 0.08 0.07 0.06 0.06 0.06 0.07 0.09 0.09 0.08 0.10 0.12 0.13 0.14 0.13 0.13 0.13 0.12 0.11 0.12 0.12 0.13 0.14 0.14 0.16 0.19 0.21 0.22 0.24 0.24 0.24 0.28 0.32 0.34 0.35 0.36 0.37 0.42 0.48 0.50 0.51
0.09 0.08 0.08 0.07 0.06 0.06 0.05 0.05 0.05 0.05 0.05 0.06 0.07 0.08 0.09 0.10 0.12 0.14 0.15 0.15 0.14 0.12 0.11 0.12 0.12 0.12 0.12 0.13 0.16 0.19 0.23 0.25 0.24 0.25 0.29 0.32 0.34 0.35 0.34 0.32 0.32 0.34 0.39 0.45
0.06 0.06 0.07 0.06 0.05 0.05 0.05 0.04 0.04 0.05 0.04 0.05 0.07 0.08 0.09 0.11 0.14 0.17 0.16 0.15 0.15 0.14 0.12 0.11 0.11 0.12 0.12 0.13 0.15 0.17 0.21 0.22 0.23 0.25 0.27 0.30 0.32 0.35 0.34 0.31 0.30 0.29 0.29 0.35
0.06 0.05 0.06 0.05 0.04 0.04 0.05 0.05 0.05 0.06 0.06 0.07 0.09 0.10 0.11 0.13 0.15 0.17 0.17 0.16 0.16 0.14 0.13 0.11 0.11 0.11 0.12 0.14 0.15 0.17 0.18 0.22 0.22 0.22 0.25 0.27 0.29 0.31 0.33 0.30 0.29 0.28 0.27 0.29
0.09 0.08 0.08 0.07 0.07 0.06 0.06 0.06 0.07 0.07 0.08 0.08 0.10 0.13 0.13 0.14 0.16 0.18 0.18 0.17 0.17 0.16 0.15 0.14 0.13 0.12 0.12 0.14 0.16 0.17 0.19 0.20 0.23 0.22 0.23 0.26 0.28 0.30 0.32 0.33 0.32 0.29 0.28 0.32
0.11 0.12 0.12 0.12 0.11 0.09 0.08 0.08 0.09 0.08 0.09 0.09 0.09 0.10 0.12 0.14 0.16 0.18 0.18 0.17 0.17 0.18 0.17 0.16 0.16 0.15 0.14 0.15 0.17 0.18 0.20 0.20 0.20 0.21 0.22 0.25 0.29 0.30 0.29 0.30 0.31 0.30 0.28 0.33
0.11 0.14 0.14 0.13 0.13 0.12 0.11 0.11 0.11 0.11 0.11 0.11 0.12 0.13 0.14 0.15 0.16 0.18 0.19 0.19 0.18 0.19 0.19 0.18 0.20 0.17 0.15 0.16 0.20 0.20 0.21 0.21 0.21 0.22 0.23 0.27 0.29 0.27 0.27 0.28 0.30 0.30 0.29 0.30
0.14 0.15 0.17 0.16 0.15 0.15 0.14 0.13 0.12 0.12 0.12 0.13 0.13 0.14 0.16 0.17 0.17 0.18 0.19 0.19 0.19 0.21 0.21 0.21 0.20 0.17 0.16 0.18 0.23 0.21 0.21 0.23 0.25 0.25 0.27 0.27 0.27 0.27 0.27 0.29 0.29 0.29 0.29 0.29
0.16 0.16 0.17 0.17 0.18 0.17 0.17 0.16 0.15 0.14 0.13 0.13 0.14 0.15 0.16 0.17 0.17 0.17 0.18 0.18 0.17 0.17 0.17 0.20 0.19 0.17 0.19 0.23 0.27 0.24 0.23 0.24 0.26 0.27 0.28 0.28 0.29 0.30 0.30 0.30 0.31 0.31 0.31 0.31
0.16 0.16 0.17 0.17 0.17 0.18 0.17 0.15 0.15 0.16 0.15 0.15 0.15 0.15 0.15 0.16 0.17 0.16 0.16 0.17 0.17 0.19 0.17 0.16 0.16 0.21 0.26 0.30 0.27 0.24 0.25 0.27 0.29 0.30 0.30 0.29 0.30 0.31 0.32 0.32 0.33 0.33 0.33 0.33
0.16 0.15 0.15 0.15 0.15 0.16 0.16 0.16 0.16 0.16 0.17 0.17 0.17 0.17 0.17 0.17 0.17 0.18 0.18 0.16 0.16 0.17 0.17 0.17 0.20 0.26 0.29 0.28 0.24 0.24 0.26 0.28 0.29 0.29 0.29 0.30 0.30 0.32 0.33 0.34 0.33 0.33 0.33 0.33
0.13 0.13 0.13 0.13 0.14 0.14 0.15 0.16 0.16 0.16 0.16 0.16 0.16 0.17 0.17 0.18 0.18 0.17 0.17 0.18 0.18 0.19 0.17 0.18 0.22 0.25 0.25 0.23 0.22 0.23 0.24 0.26 0.28 0.29 0.29 0.31 0.31 0.32 0.32 0.31 0.30 0.28 0.28 0.29
0.11 0.11 0.12 0.13 0.13 0.12 0.14 0.15 0.15 0.15 0.15 0.15 0.15 0.15 0.16 0.17 0.18 0.17 0.16 0.16 0.16 0.18 0.16 0.17 0.19 0.21 0.21 0.20 0.20 0.21 0.23 0.24 0.27 0.29 0.30 0.29 0.29 0.30 0.30 0.29 0.28 0.27 0.26 0.24
0.08 0.08 0.09 0.10 0.11 0.12 0.13 0.16 0.17 0.16 0.15 0.16 0.15 0.14 0.13 0.13 0.14 0.15 0.16 0.16 0.17 0.18 0.16 0.15 0.17 0.19 0.19 0.19 0.20 0.21 0.22 0.22 0.23 0.24 0.24 0.25 0.27 0.28 0.28 0.27 0.25 0.25 0.24 0.23
0.06 0.06 0.06 0.07 0.09 0.10 0.11 0.13 0.16 0.17 0.17 0.17 0.16 0.14 0.13 0.14 0.15 0.16 0.17 0.17 0.17 0.17 0.16 0.16 0.18 0.19 0.20 0.20 0.21 0.21 0.21 0.21 0.21 0.21 0.22 0.24 0.26 0.27 0.26 0.26 0.26 0.25 0.24 0.23

GEFSNGP_prec_meanprecacc_204.txt.gz
Total_Precipitation_Accumulation
0.53 0.41 0.45 0.46 0.35 0.44 0.73 0.73 0.75 0.46 0.34 0.33 0.31 0.28 0.25 0.27 0.27 0.27 0.28 0.30 0.34 0.37 0.40 0.43 0.42 0.41 0.44 0.50 0.57 0.59 0.61 0.68 0.72 0.74 0.77 0.87 0.91 0.87 0.87 0.89 0.95 0.99 1.00 1.05
0.56 0.34 0.34 0.36 0.29 0.33 0.42 0.45 0.51 0.40 0.36 0.26 0.25 0.23 0.23 0.25 0.23 0.21 0.23 0.24 0.26 0.30 0.36 0.39 0.37 0.37 0.37 0.40 0.45 0.47 0.48 0.54 0.61 0.68 0.77 0.87 0.94 0.91 0.88 0.86 0.91 0.98 0.98 1.03
0.53 0.27 0.38 0.42 0.31 0.35 0.38 0.37 0.43 0.46 0.38 0.24 0.23 0.22 0.22 0.23 0.20 0.18 0.18 0.18 0.19 0.22 0.28 0.29 0.29 0.32 0.34 0.36 0.39 0.42 0.41 0.43 0.50 0.63 0.73 0.78 0.84 0.89 0.90 0.90 1.00 1.10 1.10 1.11
0.60 0.40 0.47 0.28 0.19 0.24 0.29 0.32 0.34 0.33 0.25 0.19 0.20 0.21 0.21 0.21 0.18 0.16 0.15 0.14 0.15 0.18 0.21 0.21 0.22 0.24 0.26 0.27 0.33 0.42 0.45 0.47 0.51 0.58 0.68 0.78 0.83 0.88 0.94 0.96 1.05 1.14 1.19 1.21
0.73 0.53 0.28 0.14 0.11 0.16 0.26 0.31 0.21 0.19 0.17 0.12 0.13 0.15 0.15 0.17 0.16 0.15 0.15 0.14 0.14 0.16 0.17 0.16 0.18 0.21 0.21 0.22 0.28 0.37 0.43 0.48 0.48 0.53 0.63 0.74 0.84 0.92 0.96 1.00 1.06 1.11 1.10 1.08
0.82 0.64 0.33 0.16 0.07 0.08 0.22 0.41 0.17 0.12 0.12 0.11 0.13 0.19 0.17 0.15 0.15 0.13 0.14 0.18 0.17 0.16 0.16 0.16 0.18 0.20 0.23 0.25 0.29 0.37 0.41 0.45 0.47 0.50 0.58 0.68 0.79 0.88 0.93 0.95 0.95 0.95 0.94 0.89
0.68 0.62 0.27 0.12 0.06 0.08 0.34 0.49 0.20 0.13 0.12 0.13 0.16 0.17 0.14 0.11 0.10 0.12 0.13 0.17 0.22 0.24 0.25 0.26 0.28 0.29 0.30 0.32 0.35 0.38 0.42 0.47 0.49 0.52 0.57 0.66 0.71 0.74 0.77 0.76 0.73 0.72 0.71 0.68
0.41 0.57 0.33 0.15 0.14 0.24 0.31 0.21 0.16 0.15 0.15 0.18 0.20 0.17 0.14 0.12 0.11 0.11 0.14 0.18 0.23 0.28 0.29 0.32 0.33 0.35 0.36 0.39 0.40 0.41 0.43 0.47 0.52 0.54 0.53 0.54 0.56 0.60 0.58 0.57 0.57 0.56 0.57 0.57
0.29 0.31 0.22 0.18 0.22 0.24 0.23 0.19 0.15 0.14 0.14 0.16 0.22 0.22 0.20 0.17 0.14 0.12 0.13 0.16 0.20 0.23 0.24 0.25 0.30 0.36 0.40 0.41 0.40 0.39 0.42 0.43 0.44 0.45 0.45 0.46 0.46 0.47 0.49 0.50 0.51 0.53 0.53 0.54
0.25 0.22 0.18 0.17 0.19 0.17 0.16 0.16 0.14 0.14 0.15 0.16 0.18 0.21 0.20 0.20 0.18 0.17 0.16 0.13 0.14 0.16 0.18 0.19 0.21 0.25 0.30 0.32 0.32 0.30 0.33 0.32 0.32 0.33 0.35 0.37 0.38 0.39 0.42 0.45 0.45 0.46 0.47 0.47
0.23 0.18 0.14 0.13 0.12 0.11 0.10 0.09 0.10 0.12 0.13 0.14 0.14 0.17 0.19 0.19 0.16 0.17 0.16 0.14 0.12 0.12 0.12 0.13 0.14 0.16 0.20 0.22 0.23 0.23 0.24 0.24 0.24 0.25 0.31 0.35 0.36 0.37 0.40 0.43 0.48 0.49 0.46 0.45
0.26 0.17 0.17 0.15 0.10 0.08 0.09 0.08 0.08 0.10 0.12 0.12 0.12 0.15 0.16 0.16 0.14 0.14 0.16 0.16 0.13 0.12 0.12 0.12 0.13 0.13 0.14 0.18 0.21 0.23 0.22 0.22 0.23 0.22 0.26 0.34 0.38 0.38 0.42 0.45 0.51 0.55 0.54 0.50
0.17 0.14 0.12 0.11 0.10 0.09 0.09 0.08 0.08 0.09 0.10 0.10 0.09 0.11 0.13 0.14 0.14 0.14 0.14 0.13 0.12 0.12 0.12 0.12 0.13 0.14 0.14 0.16 0.19 0.21 0.22 0.24 0.25 0.25 0.28 0.32 0.35 0.36 0.37 0.38 0.43 0.49 0.52 0.52
0.09 0.08 0.09 0.07 0.08 0.08 0.08 0.07 0.07 0.07 0.07 0.08 0.08 0.09 0.10 0.11 0.13 0.14 0.15 0.16 0.15 0.13 0.12 0.12 0.13 0.12 0.12 0.13 0.16 0.19 0.23 0.25 0.25 0.25 0.29 0.32 0.35 0.37 0.35 0.33 0.33 0.35 0.40 0.46
0.06 0.06 0.07 0.06 0.05 0.05 0.05 0.05 0.05 0.06 0.05 0.06 0.07 0.08 0.09 0.11 0.14 0.17 0.16 0.15 0.15 0.14 0.12 0.11 0.12 0.12 0.12 0.13 0.15 0.17 0.21 0.22 0.23 0.25 0.28 0.31 0.33 0.36 0.35 0.33 0.32 0.30 0.30 0.36
0.07 0.05 0.06 0.05 0.05 0.04 0.05 0.05 0.05 0.06 0.07 0.07 0.09 0.10 0.11 0.13 0.15 0.17 0.17 0.16 0.16 0.15 0.13 0.12 0.11 0.11 0.12 0.14 0.16 0.17 0.18 0.22 0.23 0.23 0.25 0.28 0.30 0.33 0.34 0.32 0.31 0.29 0.28 0.29
0.10 0.09 0.08 0.08 0.07 0.06 0.06 0.07 0.07 0.07 0.08 0.09 0.10 0.13 0.13 0.14 0.16 0.18 0.18 0.17 0.17 0.17 0.16 0.14 0.14 0.12 0.13 0.15 0.16 0.18 0.19 0.20 0.23 0.22 0.23 0.26 0.29 0.31 0.34 0.35 0.34 0.31 0.29 0.33
0.12 0.13 0.13 0.13 0.12 0.10 0.09 0.09 0.09 0.09 0.09 0.10 0.10 0.11 0.13 0.15 0.17 0.18 0.18 0.18 0.18 0.18 0.17 0.17 0.17 0.16 0.14 0.15 0.17 0.19 0.20 0.20 0.20 0.21 0.22 0.26 0.30 0.31 0.31 0.32 0.33 0.32 0.29 0.33
0.12 0.15 0.16 0.15 0.14 0.14 0.13 0.12 0.13 0.12 0.12 0.12 0.13 0.13 0.14 0.15 0.16 0.18 0.19 0.20 0.19 0.20 0.20 0.19 0.21 0.18 0.15 0.17 0.21 0.21 0.21 0.21 0.22 0.22 0.24 0.28 0.30 0.28 0.29 0.30 0.31 0.31 0.30 0.30
0.16 0.16 0.18 0.17 0.16 0.16 0.15 0.14 0.13 0.12 0.13 0.13 0.13 0.14 0.16 0.17 0.17 0.18 0.19 0.19 0.20 0.22 0.22 0.22 0.21 0.17 0.16 0.18 0.24 0.21 0.21 0.23 0.25 0.26 0.27 0.28 0.28 0.28 0.28 0.30 0.31 0.31 0.30 0.30
0.16 0.16 0.17 0.18 0.18 0.17 0.17 0.17 0.15 0.14 0.13 0.13 0.14 0.15 0.16 0.17 0.17 0.18 0.18 0.18 0.18 0.18 0.18 0.21 0.19 0.17 0.19 0.23 0.28 0.25 0.23 0.25 0.27 0.28 0.29 0.29 0.30 0.30 0.31 0.31 0.32 0.32 0.32 0.32
0.16 0.17 0.17 0.18 0.18 0.18 0.17 0.15 0.15 0.16 0.15 0.15 0.15 0.15 0.15 0.16 0.17 0.17 0.16 0.17 0.17 0.19 0.18 0.16 0.17 0.21 0.27 0.31 0.27 0.25 0.26 0.28 0.30 0.31 0.31 0.30 0.31 0.32 0.33 0.33 0.34 0.34 0.34 0.34
0.16 0.16 0.16 0.16 0.16 0.16 0.16 0.16 0.16 0.17 0.17 0.17 0.17 0.17 0.17 0.18 0.18 0.18 0.18 0.16 0.16 0.18 0.17 0.17 0.21 0.26 0.30 0.29 0.25 0.24 0.27 0.29 0.30 0.30 0.31 0.31 0.32 0.33 0.35 0.35 0.35 0.34 0.35 0.34
0.14 0.13 0.14 0.14 0.14 0.15 0.15 0.16 0.17 0.16 0.16 0.16 0.16 0.17 0.17 0.19 0.18 0.17 0.17 0.18 0.18 0.19 0.18 0.19 0.23 0.25 0.26 0.24 0.22 0.24 0.25 0.27 0.28 0.30 0.30 0.32 0.33 0.34 0.34 0.33 0.32 0.30 0.30 0.31
0.11 0.12 0.12 0.13 0.13 0.13 0.14 0.15 0.15 0.15 0.15 0.15 0.15 0.15 0.16 0.17 0.18 0.17 0.16 0.16 0.17 0.18 0.17 0.17 0.20 0.22 0.22 0.20 0.21 0.22 0.23 0.25 0.28 0.30 0.31 0.31 0.31 0.32 0.32 0.31 0.30 0.29 0.27 0.26
0.08 0.09 0.09 0.10 0.12 0.13 0.14 0.16 0.18 0.16 0.15 0.16 0.15 0.14 0.13 0.13 0.14 0.15 0.16 0.17 0.17 0.18 0.17 0.16 0.17 0.19 0.20 0.20 0.21 0.22 0.23 0.23 0.24 0.25 0.25 0.27 0.29 0.30 0.30 0.29 0.27 0.27 0.26 0.25
0.06 0.06 0.06 0.08 0.10 0.10 0.11 0.14 0.17 0.18 0.17 0.17 0.16 0.14 0.13 0.14 0.15 0.16 0.17 0.17 0.17 0.17 0.16 0.17 0.18 0.20 0.21 0.21 0.22 0.22 0.22 0.22 0.22 0.23 0.24 0.25 0.27 0.28 0.28 0.28 0.28 0.27 0.26 0.25

GEFSNGP_prec_meanprecacc_210.txt.gz
Total_Precipitation_Accumulation
0.55 0.42 0.46 0.46 0.36 0.44 0.74 0.74 0.76 0.46 0.34 0.33 0.31 0.28 0.25 0.27 0.27 0.27 0.28 0.30 0.34 0.38 0.41 0.44 0.43 0.42 0.45 0.51 0.57 0.60 0.62 0.68 0.72 0.74 0.77 0.87 0.91 0.87 0.87 0.90 0.96 1.00 1.01 1.06
0.58 0.35 0.34 0.37 0.29 0.34 0.43 0.45 0.51 0.40 0.36 0.26 0.25 0.23 0.23 0.25 0.23 0.21 0.23 0.24 0.26 0.31 0.37 0.40 0.38 0.37 0.38 0.41 0.45 0.47 0.49 0.54 0.61 0.68 0.78 0.87 0.94 0.91 0.88 0.86 0.91 0.98 0.98 1.03
0.57 0.28 0.40 0.44 0.32 0.35 0.38 0.37 0.43 0.46 0.38 0.24 0.23 0.22 0.22 0.23 0.20 0.18 0.18 0.18 0.19 0.22 0.28 0.30 0.30 0.32 0.35 0.36 0.39 0.42 0.41 0.43 0.50 0.63 0.73 0.79 0.84 0.89 0.90 0.90 1.00 1.10 1.10 1.12
0.66 0.45 0.53 0.30 0.20 0.24 0.30 0.33 0.35 0.33 0.26 0.19 0.20 0.21 0.21 0.21 0.19 0.16 0.15 0.15 0.15 0.18 0.21 0.21 0.23 0.24 0.26 0.28 0.34 0.42 0.45 0.47 0.52 0.58 0.68 0.79 0.83 0.88 0.94 0.96 1.05 1.14 1.20 1.22
0.80 0.58 0.32 0.15 0.12 0.17 0.28 0.33 0.22 0.20 0.17 0.13 0.14 0.16 0.16 0.17 0.16 0.15 0.15 0.15 0.14 0.16 0.17 0.16 0.18 0.21 0.21 0.22 0.28 0.37 0.43 0.48 0.48 0.54 0.64 0.75 0.85 0.92 0.96 1.01 1.06 1.12 1.12 1.09
0.90 0.71 0.37 0.17 0.07 0.09 0.24 0.43 0.18 0.13 0.12 0.12 0.13 0.20 0.18 0.15 0.16 0.13 0.14 0.18 0.18 0.17 0.16 0.16 0.18 0.20 0.23 0.25 0.29 0.37 0.41 0.45 0.47 0.50 0.59 0.69 0.80 0.89 0.93 0.95 0.96 0.95 0.95 0.91
0.76 0.68 0.31 0.14 0.06 0.09 0.37 0.52 0.21 0.14 0.13 0.14 0.16 0.18 0.15 0.12 0.11 0.12 0.14 0.18 0.22 0.25 0.25 0.26 0.28 0.29 0.31 0.32 0.35 0.38 0.42 0.47 0.49 0.52 0.58 0.66 0.72 0.76 0.77 0.76 0.74 0.73 0.72 0.70
0.48 0.65 0.38 0.17 0.15 0.26 0.35 0.23 0.16 0.15 0.16 0.19 0.21 0.18 0.15 0.13 0.11 0.12 0.15 0.18 0.23 0.28 0.30 0.32 0.33 0.35 0.36 0.39 0.40 0.41 0.43 0.47 0.52 0.54 0.53 0.54 0.57 0.61 0.59 0.59 0.58 0.57 0.57 0.58
0.35 0.39 0.28 0.22 0.26 0.28 0.26 0.21 0.17 0.16 0.15 0.18 0.24 0.24 0.21 0.18 0.15 0.13 0.15 0.17 0.20 0.24 0.25 0.25 0.30 0.36 0.40 0.41 0.41 0.39 0.42 0.43 0.44 0.46 0.45 0.46 0.46 0.47 0.49 0.51 0.52 0.54 0.54 0.55
0.31 0.28 0.23 0.22 0.22 0.20 0.19 0.18 0.16 0.16 0.16 0.17 0.19 0.22 0.22 0.21 0.19 0.19 0.17 0.15 0.16 0.17 0.19 0.20 0.22 0.26 0.31 0.33 0.33 0.31 0.34 0.33 0.33 0.33 0.36 0.37 0.38 0.40 0.43 0.45 0.45 0.46 0.48 0.48
0.30 0.24 0.18 0.17 0.15 0.14 0.13 0.11 0.11 0.13 0.14 0.15 0.16 0.19 0.21 0.20 0.18 0.19 0.18 0.16 0.14 0.14 0.14 0.15 0.16 0.18 0.21 0.24 0.24 0.24 0.25 0.24 0.24 0.25 0.31 0.35 0.36 0.37 0.40 0.43 0.48 0.49 0.46 0.46
0.32 0.21 0.20 0.19 0.14 0.12 0.12 0.11 0.11 0.12 0.14 0.13 0.14 0.17 0.18 0.17 0.16 0.16 0.17 0.17 0.14 0.13 0.13 0.13 0.14 0.14 0.15 0.18 0.21 0.23 0.23 0.22 0.23 0.22 0.26 0.34 0.38 0.38 0.42 0.45 0.51 0.55 0.55 0.51
0.20 0.17 0.15 0.14 0.13 0.12 0.11 0.11 0.11 0.11 0.12 0.11 0.10 0.11 0.13 0.14 0.15 0.15 0.15 0.14 0.13 0.13 0.13 0.13 0.14 0.15 0.15 0.16 0.19 0.22 0.23 0.24 0.25 0.25 0.28 0.33 0.35 0.36 0.37 0.38 0.43 0.49 0.52 0.53
0.11 0.10 0.10 0.10 0.10 0.10 0.09 0.09 0.09 0.09 0.10 0.10 0.10 0.11 0.11 0.12 0.14 0.15 0.16 0.17 0.15 0.13 0.12 0.13 0.13 0.12 0.12 0.14 0.17 0.20 0.23 0.26 0.25 0.26 0.30 0.33 0.36 0.37 0.36 0.34 0.34 0.35 0.40 0.47
0.07 0.07 0.08 0.07 0.06 0.06 0.06 0.06 0.06 0.07 0.07 0.09 0.10 0.11 0.12 0.13 0.16 0.18 0.17 0.16 0.16 0.14 0.12 0.11 0.12 0.12 0.12 0.13 0.15 0.18 0.21 0.22 0.23 0.25 0.28 0.31 0.33 0.37 0.36 0.34 0.32 0.30 0.30 0.37
0.07 0.06 0.06 0.06 0.05 0.05 0.05 0.05 0.05 0.07 0.08 0.09 0.11 0.12 0.12 0.14 0.16 0.18 0.17 0.16 0.16 0.15 0.13 0.12 0.12 0.11 0.13 0.15 0.16 0.17 0.19 0.22 0.23 0.23 0.25 0.28 0.31 0.33 0.35 0.33 0.32 0.30 0.29 0.31
0.12 0.11 0.10 0.09 0.08 0.07 0.07 0.07 0.08 0.08 0.09 0.09 0.11 0.13 0.14 0.14 0.16 0.18 0.18 0.17 0.17 0.17 0.16 0.15 0.14 0.13 0.13 0.15 0.17 0.19 0.20 0.21 0.24 0.23 0.24 0.27 0.30 0.32 0.35 0.37 0.36 0.32 0.31 0.36
0.15 0.16 0.16 0.15 0.14 0.12 0.10 0.10 0.10 0.10 0.10 0.11 0.10 0.11 0.13 0.15 0.17 0.18 0.19 0.18 0.18 0.19 0.18 0.18 0.18 0.17 0.15 0.16 0.18 0.19 0.21 0.21 0.21 0.22 0.23 0.27 0.31 0.32 0.33 0.34 0.35 0.34 0.31 0.36
0.14 0.17 0.18 0.17 0.16 0.16 0.15 0.14 0.14 0.14 0.13 0.13 0.14 0.14 0.15 0.16 0.17 0.19 0.20 0.20 0.20 0.20 0.20 0.19 0.22 0.18 0.16 0.17 0.22 0.21 0.22 0.22 0.23 0.23 0.25 0.29 0.31 0.30 0.30 0.32 0.34 0.34 0.33 0.32
0.16 0.17 0.18 0.18 0.17 0.17 0.16 0.15 0.13 0.13 0.13 0.13 0.14 0.15 0.17 0.18 0.18 0.19 0.19 0.20 0.21 0.22 0.22 0.22 0.21 0.17 0.17 0.18 0.24 0.22 0.22 0.24 0.26 0.26 0.28 0.29 0.29 0.29 0.30 0.32 0.33 0.33 0.32 0.32
0.16 0.17 0.17 0.18 0.18 0.18 0.18 0.17 0.16 0.15 0.13 0.13 0.14 0.16 0.16 0.17 0.18 0.18 0.18 0.19 0.18 0.18 0.18 0.21 0.19 0.17 0.19 0.24 0.29 0.25 0.24 0.26 0.28 0.29 0.29 0.30 0.31 0.31 0.31 0.32 0.33 0.33 0.33 0.33
0.16 0.17 0.18 0.18 0.18 0.18 0.17 0.16 0.15 0.16 0.16 0.15 0.15 0.15 0.15 0.16 0.17 0.17 0.16 0.17 0.17 0.19 0.18 0.16 0.17 0.21 0.28 0.32 0.28 0.26 0.26 0.29 0.30 0.31 0.31 0.30 0.32 0.33 0.34 0.34 0.35 0.35 0.35 0.36
0.16 0.16 0.16 0.16 0.16 0.17 0.17 0.16 0.16 0.17 0.17 0.17 0.17 0.17 0.17 0.18 0.18 0.18 0.19 0.16 0.16 0.18 0.18 0.17 0.21 0.27 0.31 0.30 0.25 0.25 0.27 0.29 0.31 0.31 0.31 0.32 0.33 0.34 0.36 0.36 0.36 0.35 0.36 0.36
0.14 0.13 0.14 0.14 0.14 0.15 0.16 0.17 0.17 0.17 0.17 0.17 0.17 0.17 0.17 0.19 0.19 0.18 0.18 0.18 0.18 0.20 0.18 0.19 0.23 0.26 0.27 0.24 0.23 0.24 0.25 0.27 0.29 0.30 0.31 0.32 0.34 0.35 0.35 0.34 0.34 0.31 0.31 0.32
0.11 0.12 0.13 0.13 0.13 0.13 0.15 0.16 0.16 0.16 0.16 0.15 0.15 0.15 0.16 0.18 0.19 0.18 0.16 0.16 0.17 0.19 0.17 0.17 0.20 0.22 0.22 0.20 0.21 0.22 0.24 0.25 0.28 0.31 0.32 0.31 0.32 0.33 0.33 0.32 0.32 0.30 0.29 0.28
0.09 0.09 0.09 0.11 0.12 0.13 0.14 0.17 0.19 0.17 0.16 0.16 0.15 0.14 0.14 0.13 0.14 0.15 0.16 0.17 0.17 0.18 0.17 0.16 0.17 0.20 0.20 0.20 0.21 0.22 0.23 0.24 0.25 0.26 0.26 0.28 0.30 0.31 0.31 0.30 0.29 0.28 0.28 0.26
0.07 0.07 0.07 0.08 0.10 0.11 0.12 0.14 0.18 0.19 0.18 0.18 0.17 0.14 0.14 0.14 0.15 0.17 0.17 0.17 0.17 0.18 0.17 0.17 0.18 0.20 0.21 0.22 0.22 0.22 0.22 0.23 0.23 0.23 0.24 0.26 0.28 0.29 0.29 0.29 0.30 0.29 0.28 0.27

GEFSNGP_prec_meanprecacc_216.txt.gz
Total_Precipitation_Accumulation
0.57 0.43 0.47 0.47 0.36 0.45 0.75 0.75 0.77 0.46 0.34 0.33 0.31 0.28 0.25 0.27 0.27 0.28 0.28 0.30 0.34 0.38 0.42 0.45 0.43 0.42 0.45 0.51 0.58 0.60 0.62 0.69 0.73 0.74 0.78 0.87 0.91 0.87 0.88 0.90 0.96 1.00 1.01 1.06
0.60 0.36 0.35 0.38 0.30 0.34 0.43 0.46 0.51 0.40 0.36 0.27 0.26 0.23 0.23 0.25 0.23 0.21 0.23 0.24 0.26 0.31 0.37 0.40 0.39 0.37 0.38 0.41 0.46 0.47 0.49 0.54 0.61 0.69 0.78 0.87 0.94 0.92 0.88 0.86 0.92 0.99 0.98 1.03
0.60 0.30 0.42 0.47 0.34 0.38 0.40 0.38 0.44 0.48 0.39 0.24 0.23 0.22 0.22 0.23 0.20 0.18 0.18 0.18 0.19 0.22 0.28 0.30 0.30 0.33 0.35 0.37 0.40 0.43 0.42 0.43 0.51 0.64 0.74 0.79 0.85 0.89 0.90 0.91 1.01 1.10 1.11 1.12
0.71 0.50 0.59 0.34 0.21 0.26 0.33 0.36 0.37 0.35 0.27 0.20 0.20 0.21 0.21 0.21 0.19 0.16 0.15 0.15 0.15 0.18 0.21 0.22 0.23 0.26 0.27 0.29 0.34 0.42 0.46 0.48 0.52 0.59 0.69 0.79 0.83 0.89 0.94 0.96 1.05 1.15 1.20 1.22
0.86 0.65 0.36 0.17 0.13 0.19 0.30 0.35 0.24 0.21 0.18 0.13 0.14 0.16 0.16 0.17 0.16 0.15 0.15 0.15 0.14 0.16 0.17 0.16 0.18 0.22 0.22 0.23 0.29 0.37 0.44 0.48 0.49 0.54 0.64 0.75 0.85 0.92 0.96 1.01 1.06 1.12 1.12 1.09
0.97 0.78 0.42 0.21 0.09 0.10 0.26 0.47 0.20 0.14 0.13 0.12 0.14 0.21 0.18 0.15 0.16 0.13 0.14 0.18 0.18 0.17 0.17 0.17 0.18 0.21 0.24 0.26 0.30 0.38 0.41 0.46 0.47 0.51 0.59 0.70 0.80 0.89 0.94 0.95 0.96 0.95 0.95 0.91
0.82 0.74 0.35 0.16 0.08 0.11 0.41 0.56 0.22 0.15 0.14 0.15 0.18 0.19 0.15 0.12 0.12 0.13 0.14 0.19 0.23 0.26 0.26 0.27 0.29 0.30 0.32 0.33 0.36 0.39 0.42 0.47 0.49 0.52 0.58 0.67 0.73 0.76 0.78 0.77 0.75 0.73 0.72 0.70
0.54 0.71 0.44 0.20 0.17 0.30 0.39 0.25 0.18 0.17 0.17 0.20 0.22 0.19 0.16 0.14 0.13 0.14 0.17 0.21 0.26 0.31 0.33 0.34 0.36 0.37 0.38 0.40 0.41 0.41 0.43 0.48 0.52 0.54 0.53 0.54 0.57 0.61 0.60 0.59 0.59 0.57 0.58 0.59
0.42 0.46 0.35 0.27 0.31 0.33 0.29 0.24 0.20 0.18 0.18 0.20 0.26 0.26 0.23 0.20 0.18 0.17 0.18 0.22 0.25 0.27 0.28 0.29 0.33 0.38 0.42 0.43 0.41 0.40 0.42 0.44 0.45 0.46 0.45 0.46 0.46 0.48 0.50 0.51 0.53 0.54 0.54 0.55
0.37 0.35 0.28 0.26 0.26 0.23 0.22 0.22 0.21 0.20 0.21 0.22 0.24 0.27 0.25 0.25 0.23 0.22 0.21 0.19 0.19 0.21 0.22 0.23 0.24 0.28 0.32 0.33 0.33 0.32 0.35 0.34 0.33 0.34 0.36 0.37 0.38 0.40 0.44 0.46 0.46 0.47 0.49 0.49
0.35 0.29 0.22 0.21 0.19 0.18 0.16 0.14 0.14 0.16 0.18 0.20 0.20 0.23 0.25 0.24 0.22 0.22 0.21 0.19 0.17 0.17 0.17 0.18 0.19 0.20 0.23 0.25 0.26 0.26 0.27 0.26 0.25 0.26 0.32 0.36 0.36 0.38 0.41 0.44 0.49 0.50 0.47 0.47
0.38 0.26 0.25 0.24 0.19 0.17 0.16 0.15 0.15 0.16 0.17 0.17 0.17 0.20 0.21 0.21 0.19 0.19 0.20 0.20 0.17 0.15 0.16 0.16 0.16 0.16 0.17 0.20 0.23 0.25 0.24 0.24 0.24 0.23 0.27 0.34 0.38 0.38 0.42 0.46 0.52 0.56 0.56 0.53
0.24 0.21 0.19 0.18 0.17 0.15 0.15 0.15 0.14 0.14 0.15 0.15 0.13 0.14 0.15 0.16 0.17 0.17 0.16 0.16 0.15 0.15 0.15 0.14 0.15 0.16 0.16 0.17 0.20 0.23 0.24 0.26 0.26 0.26 0.29 0.33 0.36 0.37 0.38 0.39 0.43 0.50 0.53 0.54
0.13 0.11 0.13 0.11 0.12 0.11 0.11 0.11 0.10 0.10 0.11 0.11 0.12 0.12 0.12 0.13 0.15 0.17 0.17 0.18 0.17 0.15 0.14 0.14 0.14 0.14 0.14 0.15 0.17 0.21 0.24 0.26 0.25 0.26 0.30 0.33 0.36 0.38 0.36 0.34 0.34 0.36 0.41 0.48
0.08 0.08 0.10 0.08 0.06 0.06 0.07 0.06 0.06 0.08 0.08 0.10 0.11 0.12 0.13 0.15 0.18 0.20 0.20 0.18 0.18 0.16 0.14 0.12 0.13 0.13 0.13 0.14 0.16 0.18 0.22 0.23 0.23 0.25 0.28 0.31 0.34 0.37 0.37 0.34 0.33 0.31 0.31 0.37
0.09 0.07 0.07 0.06 0.06 0.05 0.06 0.06 0.07 0.08 0.08 0.09 0.12 0.13 0.14 0.16 0.18 0.20 0.19 0.18 0.18 0.16 0.14 0.13 0.12 0.12 0.13 0.16 0.17 0.18 0.19 0.23 0.24 0.24 0.26 0.29 0.31 0.34 0.36 0.34 0.33 0.31 0.30 0.31
0.14 0.12 0.11 0.10 0.09 0.08 0.08 0.09 0.09 0.09 0.10 0.10 0.12 0.14 0.15 0.16 0.17 0.19 0.18 0.18 0.18 0.18 0.16 0.15 0.15 0.13 0.14 0.16 0.18 0.19 0.20 0.21 0.25 0.24 0.25 0.28 0.30 0.33 0.36 0.38 0.37 0.33 0.31 0.36
0.17 0.17 0.17 0.16 0.15 0.13 0.11 0.11 0.11 0.11 0.11 0.12 0.11 0.12 0.14 0.16 0.19 0.20 0.20 0.19 0.19 0.19 0.18 0.18 0.18 0.17 0.16 0.16 0.18 0.20 0.22 0.22 0.22 0.23 0.24 0.27 0.32 0.33 0.34 0.36 0.36 0.35 0.32 0.37
0.15 0.18 0.19 0.17 0.17 0.16 0.15 0.15 0.15 0.14 0.14 0.13 0.14 0.15 0.16 0.17 0.18 0.20 0.22 0.21 0.21 0.21 0.21 0.20 0.22 0.19 0.16 0.18 0.22 0.22 0.23 0.23 0.24 0.24 0.26 0.30 0.32 0.31 0.32 0.33 0.35 0.35 0.34 0.34
0.17 0.18 0.19 0.18 0.17 0.17 0.16 0.15 0.14 0.13 0.13 0.13 0.14 0.16 0.17 0.19 0.19 0.20 0.21 0.21 0.22 0.23 0.23 0.23 0.22 0.18 0.17 0.19 0.25 0.23 0.23 0.25 0.27 0.28 0.29 0.30 0.30 0.30 0.31 0.33 0.34 0.34 0.34 0.34
0.17 0.17 0.17 0.18 0.18 0.18 0.18 0.17 0.16 0.15 0.14 0.13 0.15 0.16 0.17 0.18 0.19 0.19 0.19 0.20 0.19 0.19 0.19 0.22 0.20 0.18 0.20 0.25 0.30 0.26 0.25 0.27 0.29 0.30 0.30 0.31 0.32 0.32 0.32 0.32 0.33 0.34 0.34 0.34
0.17 0.17 0.18 0.18 0.18 0.18 0.17 0.16 0.16 0.16 0.16 0.16 0.15 0.15 0.16 0.17 0.17 0.17 0.17 0.18 0.18 0.20 0.19 0.17 0.18 0.22 0.29 0.33 0.29 0.26 0.27 0.29 0.31 0.32 0.32 0.31 0.32 0.33 0.34 0.35 0.36 0.36 0.36 0.37
0.16 0.16 0.16 0.16 0.16 0.17 0.17 0.16 0.16 0.17 0.18 0.18 0.18 0.18 0.18 0.18 0.18 0.19 0.19 0.17 0.17 0.18 0.18 0.18 0.22 0.28 0.32 0.30 0.26 0.25 0.27 0.30 0.31 0.31 0.31 0.32 0.33 0.35 0.37 0.37 0.36 0.36 0.37 0.37
0.14 0.14 0.14 0.14 0.14 0.15 0.16 0.17 0.17 0.17 0.17 0.18 0.18 0.18 0.18 0.19 0.19 0.18 0.18 0.18 0.19 0.20 0.19 0.19 0.24 0.27 0.28 0.25 0.23 0.24 0.26 0.28 0.29 0.30 0.31 0.33 0.34 0.35 0.36 0.35 0.34 0.32 0.32 0.33
0.12 0.12 0.13 0.14 0.13 0.13 0.15 0.16 0.16 0.16 0.16 0.16 0.16 0.16 0.17 0.18 0.19 0.18 0.17 0.16 0.17 0.19 0.17 0.18 0.21 0.23 0.23 0.21 0.21 0.23 0.24 0.26 0.29 0.32 0.32 0.32 0.32 0.33 0.34 0.33 0.32 0.31 0.30 0.29
0.09 0.09 0.10 0.11 0.13 0.13 0.15 0.17 0.19 0.17 0.16 0.17 0.16 0.15 0.14 0.14 0.14 0.15 0.16 0.17 0.17 0.19 0.17 0.16 0.18 0.20 0.21 0.21 0.22 0.23 0.24 0.24 0.25 0.26 0.26 0.28 0.30 0.32 0.32 0.31 0.30 0.29 0.28 0.27
0.07 0.07 0.07 0.08 0.10 0.11 0.12 0.15 0.18 0.19 0.18 0.18 0.18 0.15 0.14 0.15 0.16 0.17 0.17 0.17 0.17 0.18 0.17 0.17 0.19 0.21 0.22 0.22 0.23 0.23 0.23 0.23 0.23 0.24 0.25 0.27 0.29 0.30 0.29 0.30 0.30 0.29 0.29 0.27